Weather History for KTTF - October, 2012

Change the Weather History Date:

Wednesday, October 17, 2012

  Actual Average Record
Temperature  
Mean Temperature 64 °F -  
Max Temperature 75 °F 60 °F 89 °F (1938)
Min Temperature 53 °F 41 °F 25 °F (1977)
Degree Days  
Heating Degree Days 1    
Growing Degree Days 14 (Base 50)    
Moisture  
Dew Point 49 °F    
Average Humidity 62    
Maximum Humidity 94    
Minimum Humidity 36    
Precipitation  
Precipitation 0.00 in - - ()
Sea Level Pressure  
Sea Level Pressure 29.68 in    
Wind  
Wind Speed 8 mph (South)    
Max Wind Speed 18 mph    
Max Gust Speed 26 mph    
Visibility 10 miles    
Events Rain    
Averages and records for this station are not official NWS values.
T = Trace of Precipitation, MM = Missing Value Source: NWS Daily Summary

Daily Weather History Graph

Daily Weather History Graph

Search for Another Location

Airport or City:

Trip Planner

Search our weather history database for the weather conditions in past years. The results will help you decide how hot, cold, wet, or windy it might be!

Date:

Astronomy

Oct. 17, 2012 Rise Set
Actual Time 7:48 AM EDT 6:48 PM EDT
Civil Twilight 7:20 AM EDT 7:16 PM EDT
Nautical Twilight 6:48 AM EDT 7:48 PM EDT
Astronomical Twilight 6:16 AM EDT 8:21 PM EDT
Moon 10:24 AM EDT (10/17) 8:20 PM EDT (10/17)
Length of Visible Light 11h 55m
Length of Day
10h 59m
Waxing Crescent, 7% of the Moon is Illuminated
Oct 17
Waxing Crescent
Oct 21
First Quarter
Oct 29
Full
Nov 6
Last Quarter
Nov 13
New

Hourly Weather History & Observations

Time (EDT) Temp. Dew Point Humidity Pressure Visibility Wind Dir Wind Speed Gust Speed Precip Events Conditions
12:14 AM 53.6 °F 46.4 °F 77% 29.78 in 10.0 mi Calm Calm - N/A   Mostly Cloudy
12:34 AM 53.6 °F 46.4 °F 77% 29.77 in 10.0 mi SSE 5.8 mph - N/A   Scattered Clouds
12:54 AM 53.6 °F 44.6 °F 72% 29.76 in 10.0 mi SE 6.9 mph - N/A   Mostly Cloudy
1:14 AM 53.6 °F 44.6 °F 72% 29.76 in 10.0 mi SSE 6.9 mph - N/A   Overcast
1:34 AM 55.4 °F 44.6 °F 67% 29.75 in 10.0 mi SSE 8.1 mph - N/A   Overcast
1:54 AM 55.4 °F 44.6 °F 67% 29.74 in 10.0 mi SSE 6.9 mph - N/A   Overcast
2:14 AM 55.4 °F 44.6 °F 67% 29.75 in 10.0 mi South 8.1 mph - N/A Rain Light Rain
2:34 AM 55.4 °F 44.6 °F 67% 29.74 in 10.0 mi South 9.2 mph - N/A   Overcast
2:54 AM 55.4 °F 46.4 °F 72% 29.73 in 10.0 mi SSE 5.8 mph - N/A   Overcast
3:15 AM 57.2 °F 46.4 °F 67% 29.73 in 10.0 mi South 8.1 mph - N/A   Overcast
3:30 AM 57.2 °F 46.4 °F 67% 29.72 in 10.0 mi South 8.1 mph - N/A   Overcast
3:52 AM 59.0 °F 44.6 °F 59% 29.72 in 10.0 mi SSW 9.2 mph 18.4 mph N/A   Overcast
4:12 AM 57.2 °F 46.4 °F 67% 29.72 in 10.0 mi South 6.9 mph - N/A Rain Rain
4:32 AM 57.2 °F 46.4 °F 67% 29.72 in 10.0 mi South 10.4 mph - N/A   Overcast
4:52 AM 57.2 °F 48.2 °F 72% 29.72 in 10.0 mi SSW 8.1 mph - N/A Rain Light Rain
5:12 AM 57.2 °F 48.2 °F 72% 29.72 in 10.0 mi South 5.8 mph - N/A   Overcast
5:32 AM 57.2 °F 50.0 °F 77% 29.72 in 10.0 mi South 9.2 mph - N/A   Overcast
5:53 AM 57.2 °F 50.0 °F 77% 29.71 in 10.0 mi South 10.4 mph - N/A   Mostly Cloudy
6:13 AM 57.2 °F 50.0 °F 77% 29.71 in 10.0 mi South 9.2 mph - N/A   Mostly Cloudy
6:33 AM 57.2 °F 50.0 °F 77% 29.71 in 10.0 mi South 9.2 mph - N/A   Mostly Cloudy
6:53 AM 57.2 °F 50.0 °F 77% 29.71 in 10.0 mi South 9.2 mph - N/A   Scattered Clouds
7:13 AM 57.2 °F 50.0 °F 77% 29.72 in 10.0 mi South 8.1 mph - N/A   Scattered Clouds
7:53 AM 57.2 °F 48.2 °F 72% 29.71 in 10.0 mi South 9.2 mph - N/A   Mostly Cloudy
8:13 AM 57.2 °F 48.2 °F 72% 29.71 in 10.0 mi South 9.2 mph - N/A   Mostly Cloudy
8:33 AM 57.2 °F 48.2 °F 72% 29.71 in 10.0 mi South 6.9 mph - N/A   Mostly Cloudy
8:54 AM 57.2 °F 48.2 °F 72% 29.71 in 10.0 mi South 8.1 mph - N/A   Scattered Clouds
9:14 AM 57.2 °F 48.2 °F 72% 29.72 in 10.0 mi South 8.1 mph - N/A   Mostly Cloudy
9:34 AM 60.8 °F 50.0 °F 68% 29.72 in 10.0 mi South 9.2 mph - N/A   Mostly Cloudy
9:54 AM 60.8 °F 48.2 °F 63% 29.72 in 10.0 mi South 12.7 mph - N/A   Mostly Cloudy
10:14 AM 60.8 °F 48.2 °F 63% 29.72 in 10.0 mi South 10.4 mph - N/A   Scattered Clouds
10:34 AM 60.8 °F 48.2 °F 63% 29.73 in 10.0 mi South 12.7 mph 16.1 mph N/A   Mostly Cloudy
10:54 AM 62.6 °F 48.2 °F 59% 29.73 in 10.0 mi SSW 15.0 mph 20.7 mph N/A   Mostly Cloudy
11:14 AM 64.4 °F 50.0 °F 59% 29.72 in 10.0 mi South 12.7 mph - N/A   Mostly Cloudy
11:34 AM 64.4 °F 50.0 °F 59% 29.71 in 10.0 mi South 11.5 mph 16.1 mph N/A   Mostly Cloudy
11:55 AM 66.2 °F 50.0 °F 56% 29.71 in 10.0 mi South 12.7 mph 20.7 mph N/A   Scattered Clouds
12:15 PM 68.0 °F 50.0 °F 52% 29.70 in 10.0 mi South 17.3 mph - N/A   Clear
12:35 PM 69.8 °F 50.0 °F 49% 29.69 in 10.0 mi SSE 11.5 mph 17.3 mph N/A   Clear
12:55 PM 69.8 °F 50.0 °F 49% 29.68 in 10.0 mi South 16.1 mph - N/A   Clear
1:15 PM 71.6 °F 50.0 °F 46% 29.67 in 10.0 mi South 13.8 mph 23.0 mph N/A   Clear
1:35 PM 71.6 °F 50.0 °F 46% 29.67 in 10.0 mi South 11.5 mph 23.0 mph N/A   Clear
1:55 PM 71.6 °F 48.2 °F 43% 29.66 in 10.0 mi South 16.1 mph 25.3 mph N/A   Clear
2:15 PM 73.4 °F 48.2 °F 41% 29.65 in 10.0 mi South 11.5 mph 24.2 mph N/A   Clear
2:35 PM 73.4 °F 50.0 °F 44% 29.65 in 10.0 mi South 15.0 mph - N/A   Clear
2:56 PM 73.4 °F 48.2 °F 41% 29.64 in 10.0 mi South 11.5 mph 21.9 mph N/A   Clear
3:11 PM 73.4 °F 48.2 °F 41% 29.63 in 10.0 mi South 13.8 mph 21.9 mph N/A   Clear
3:31 PM 75.2 °F 46.4 °F 36% 29.63 in 10.0 mi South 11.5 mph 26.5 mph N/A   Clear
3:51 PM 75.2 °F 46.4 °F 36% 29.62 in 10.0 mi South 18.4 mph 25.3 mph N/A   Clear
4:11 PM 73.4 °F 48.2 °F 41% 29.62 in 10.0 mi South 16.1 mph 23.0 mph N/A   Clear
4:31 PM 73.4 °F 48.2 °F 41% 29.62 in 10.0 mi SSE 8.1 mph - N/A   Clear
4:51 PM 71.6 °F 50.0 °F 46% 29.61 in 10.0 mi SSE 11.5 mph - N/A   Clear
5:11 PM 73.4 °F 50.0 °F 44% 29.61 in 10.0 mi South 10.4 mph 18.4 mph N/A   Clear
5:31 PM 73.4 °F 48.2 °F 41% 29.60 in 10.0 mi South 13.8 mph - N/A   Clear
5:51 PM 71.6 °F 48.2 °F 43% 29.59 in 10.0 mi SSE 13.8 mph 20.7 mph N/A   Clear
6:12 PM 69.8 °F 48.2 °F 46% 29.59 in 10.0 mi SSE 12.7 mph - N/A   Scattered Clouds
6:32 PM 69.8 °F 48.2 °F 46% 29.60 in 10.0 mi SSE 9.2 mph - N/A   Mostly Cloudy
6:52 PM 69.8 °F 48.2 °F 46% 29.60 in 10.0 mi SSE 5.8 mph - N/A   Overcast
7:12 PM 69.8 °F 48.2 °F 46% 29.61 in 10.0 mi South 8.1 mph - N/A   Overcast
7:32 PM 69.8 °F 48.2 °F 46% 29.61 in 10.0 mi SSE 8.1 mph - N/A   Overcast
7:52 PM 68.0 °F 48.2 °F 49% 29.62 in 10.0 mi SSE 9.2 mph - N/A   Overcast
8:12 PM 68.0 °F 48.2 °F 49% 29.62 in 10.0 mi SSE 8.1 mph - N/A   Overcast
8:32 PM 68.0 °F 51.8 °F 56% 29.62 in 10.0 mi SSE 11.5 mph 19.6 mph N/A Rain Rain
8:52 PM 66.2 °F 53.6 °F 64% 29.64 in 10.0 mi SSW 10.4 mph - N/A Rain Light Rain
9:13 PM 64.4 °F 55.4 °F 73% 29.64 in 10.0 mi SW 9.2 mph 19.6 mph N/A Rain Light Rain
9:33 PM 62.6 °F 57.2 °F 82% 29.64 in 7.0 mi SW 5.8 mph - N/A Rain Rain
9:53 PM 60.8 °F 57.2 °F 88% 29.63 in 7.0 mi Calm Calm - N/A Rain Rain
10:13 PM 59.0 °F 57.2 °F 94% 29.62 in 10.0 mi Calm Calm - N/A Rain Light Rain
10:33 PM 59.0 °F 57.2 °F 94% 29.61 in 7.0 mi Calm Calm - N/A   Overcast
10:53 PM 59.0 °F 57.2 °F 94% 29.59 in 7.0 mi Calm Calm - N/A   Overcast
11:13 PM 59.0 °F 57.2 °F 94% 29.58 in 10.0 mi ENE 3.5 mph - N/A   Overcast
11:54 PM 59.0 °F 57.2 °F 94% 29.55 in 10.0 mi East 4.6 mph - N/A   Overcast